This demonstration page uses our WeatherBlox Daily Observations layout. Learn more.

Left ArrowRight Arrow

Hourly Observations for November 27, 2019

Temp ( °F °C ) Dew Point ( °F °C ) Humidity (%) Winds ( mph kmh ) Pressure ( in mb ) Visibility ( mi km ) Precip ( " mm )
12:53 am 00:53 Cloudy 44 6.7 39 3.9 83 83 S 23 37 29.23 990 10 16 0.00 0.00
1:53 am 01:53 Cloudy 43 6.1 39 3.9 86 86 S 25 41 29.25 990 10 16 0.00 0.00
2:53 am 02:53 Mostly Cloudy 43 6.1 39 3.9 86 86 S 24 39 29.27 991 10 16 0.00 0.00
3:53 am 03:53 Partly Cloudy 43 6.1 38 3.3 82 82 S 20 31 29.29 992 10 16 0.00 0.00
4:53 am 04:53 Mostly Clear 43 6.1 38 3.3 82 82 S 22 35 29.31 993 10 16 0.00 0.00
5:53 am 05:53 Mostly Clear 43 6.1 38 3.3 82 82 S 21 33 29.33 993 10 16 0.00 0.00
6:53 am 06:53 Clear 43 6.1 37 2.8 80 80 S 15 24 29.36 994 10 16 0.00 0.00
7:53 am 07:53 Sunny 43 6.1 38 3.3 82 82 S 16 26 29.39 995 10 16 0.00 0.00
8:53 am 08:53 Sunny 44 6.7 38 3.3 79 79 S 12 19 29.42 996 10 16 0.00 0.00
9:53 am 09:53 Mostly Sunny 45 7.2 40 4.4 83 83 S 15 24 29.43 997 10 16 0.00 0.00
10:53 am 10:53 Mostly Sunny 47 8.3 39 3.9 74 74 S 17 28 29.43 997 10 16 0.00 0.00
11:53 am 11:53 Mostly Cloudy 48 8.9 39 3.9 71 71 S 15 24 29.43 997 10 16 0.00 0.00
12:33 pm 12:33 Mostly Cloudy 48 8.9 38 3.3 68 68 S 14 22 29.44 997 10 16 0.00 0.00
12:53 pm 12:53 Mostly Cloudy 48 8.9 38 3.3 68 68 S 12 19 29.43 997 10 16 0.00 0.00
1:12 pm 13:12 Partly Cloudy 48 8.9 37 2.8 66 66 S 12 19 29.44 997 10 16 0.00 0.00
1:53 pm 13:53 Mostly Sunny 48 8.9 37 2.8 66 66 S 12 19 29.41 996 10 16 0.00 0.00
2:53 pm 14:53 Mostly Sunny 49 9.4 36 2.2 61 61 S 8 13 29.41 996 10 16 0.00 0.00
3:53 pm 15:53 Cloudy 48 8.9 36 2.2 63 63 S 13 20 29.42 996 10 16 0.00 0.00
4:24 pm 16:24 Partly Cloudy with Nearby Thunderstorms 47 8.3 37 2.8 69 69 S 8 13 29.44 997 10 16 0.00 0.00
4:53 pm 16:53 Cloudy with Nearby Thunderstorms 44 6.7 33 0.6 65 65 WNW 12 19 29.44 997 9 14 0.00 0.00
5:08 pm 17:08 Cloudy with Light Rain 42 5.6 34 1.1 73 73 NW 6 9 29.47 998 10 16 0.01 0.25
5:53 pm 17:53 Cloudy with Rain 42 5.6 35 1.7 76 76 W 10 17 29.47 998 8 13 0.03 0.76
6:19 pm 18:19 Cloudy with Nearby Thunderstorms 41 5 33 0.6 73 73 W 9 15 29.50 999 7 11 0.09 2.29
6:22 pm 18:22 Cloudy with Thunderstorms 41 5 33 0.6 73 73 WNW 12 19 29.49 999 7 11 0.10 2.54
6:38 pm 18:38 Cloudy with Light Rain 41 5 34 1.1 76 76 W 8 13 29.50 999 8 13 0.11 2.79
6:53 pm 18:53 Cloudy with Light Rain 40 4.4 34 1.1 79 79 W 9 15 29.48 998 6 10 0.13 3.30
7:11 pm 19:11 Cloudy with Rain 39 3.9 35 1.7 86 86 W 6 9 29.51 999 4 6 0.05 1.27
7:51 pm 19:51 Cloudy with Light Rain 37 3 36 2 93 93 NE 12 19 29.51 999 10 16 0.13 3.30
7:53 pm 19:53 Cloudy with Light Rain 38 3.3 35 1.7 89 89 NE 12 19 29.49 999 10 16 0.13 3.30
8:29 pm 20:29 Cloudy with Light Rain 38 3.3 36 2.2 93 93 E 6 9 29.55 1001 4 6 0.02 0.51
8:53 pm 20:53 Cloudy with Rain 38 3.3 36 2.2 93 93 N 3 6 29.54 1000 4 6 0.08 2.03
9:53 pm 21:53 Cloudy with Light Rain 37 2.8 34 1.1 89 89 NNE 10 17 29.54 1000 4 6 0.10 2.54
10:04 pm 22:04 Cloudy with Light Rain 36 2.2 34 1.1 93 93 NE 10 17 29.57 1001 6 10 0.01 0.25
10:53 pm 22:53 Cloudy with Light Rain 36 2.2 34 1.1 93 93 NNE 3 6 29.63 1003 5 8 0.11 2.79
11:26 pm 23:26 Cloudy with Light Rain 36 2.2 34 1.1 93 93 N 5 7 29.59 1002 9 14 0.01 0.25
11:40 pm 23:40 Cloudy with Light Rain 36 2.2 34 1.1 93 93 N 6 9 29.58 1002 6 10 0.03 0.76
11:53 pm 23:53 Cloudy with Light Rain 36 2.2 34 1.1 93 93 NNW 3 6 29.56 1001 6 10 0.04 1.02

Powered by AerisWeather